GEFSCGP_500_meanwind_000.txt.gz
Wind_Speed
15 17 19 21 23 26 29 32 32 33 35 34 31 30 30 28 29 29 30 31 32 35 36 40 37 32 28 24 23 24 27 28 28 28 27 28 30 31 34 36 36 37 37 36
8 11 15 19 22 24 29 30 30 30 31 29 28 30 32 29 28 27 29 33 35 37 39 37 29 24 23 23 24 25 24 23 24 25 28 30 30 32 33 35 37 37 36 36
5 7 11 13 16 20 26 30 31 30 29 29 27 29 30 32 32 32 34 35 35 36 37 32 22 22 26 26 26 25 22 22 24 24 26 28 29 30 31 32 34 37 38 39
6 8 10 11 13 17 20 24 27 28 29 31 29 32 32 34 36 37 37 36 34 34 31 23 20 26 29 26 20 21 23 26 26 25 24 24 25 27 29 31 32 34 36 39
8 10 12 13 13 16 18 19 22 22 25 28 32 37 37 37 39 39 38 35 30 27 23 23 24 27 27 21 19 21 22 22 21 21 20 20 22 23 25 29 33 35 36 37
3 5 7 7 8 11 12 14 16 16 18 20 23 28 31 32 33 33 31 25 22 22 22 26 27 25 24 22 23 23 21 21 20 20 19 21 22 24 26 28 30 34 37 37
5 5 5 7 9 10 10 12 14 15 16 17 20 21 20 21 22 23 22 21 23 25 27 27 23 22 24 25 24 23 23 24 23 24 25 25 25 26 27 28 29 33 35 37
6 6 6 8 11 11 11 12 14 16 16 16 19 18 16 17 18 18 20 23 25 26 24 21 22 24 26 25 25 24 25 25 24 25 26 27 28 28 29 30 31 33 34 36
6 7 10 10 9 11 10 11 14 15 16 17 16 17 17 17 17 18 23 24 24 20 18 19 22 26 26 27 28 28 27 28 28 27 28 30 29 29 30 31 33 32 33 37
6 7 10 11 10 9 9 11 13 17 19 18 16 17 18 19 18 21 24 23 21 21 24 27 28 28 29 31 33 34 33 32 31 32 32 32 34 32 31 32 34 34 33 35
10 11 13 15 13 12 12 13 15 17 20 22 21 18 17 20 25 27 28 29 32 32 33 35 37 37 38 39 40 42 42 38 33 30 32 35 39 40 37 35 35 34 33 34
14 15 14 17 18 17 16 19 21 23 24 25 28 28 24 25 27 29 32 35 37 38 39 42 44 44 45 46 47 47 48 47 44 40 38 39 41 43 44 39 37 35 35 34
13 14 15 17 20 20 21 22 25 28 30 31 32 34 34 34 34 34 36 39 41 42 44 46 47 48 48 49 51 52 51 49 49 50 46 43 46 46 43 41 39 37 36 35
14 14 17 20 23 23 23 24 28 31 33 35 33 36 37 38 39 41 43 44 45 46 48 48 50 52 52 53 54 55 54 51 53 56 54 53 51 49 44 43 42 41 39 37
16 18 19 21 23 24 24 26 27 29 32 35 35 36 37 39 41 44 47 49 51 52 55 56 58 59 62 61 58 51 49 54 60 65 64 64 60 53 53 52 51 48 42 37
20 22 23 22 26 27 28 31 33 33 34 35 36 39 40 43 46 49 52 54 55 56 58 59 63 65 59 54 53 53 63 67 71 73 72 70 66 59 57 56 52 48 43 37
24 26 27 25 24 27 28 30 31 33 35 38 41 42 44 47 51 56 58 55 56 60 61 60 65 66 73 80 77 77 78 75 71 70 71 73 73 70 64 58 50 45 42 38
27 28 29 28 28 30 33 33 35 38 40 42 44 46 49 46 49 50 52 62 61 71 64 71 75 83 82 82 82 82 80 77 75 74 78 78 72 67 63 58 48 45 43 40
27 29 30 31 31 33 38 41 42 44 45 44 46 48 50 55 58 60 70 76 75 78 83 89 88 88 87 87 87 85 84 85 86 85 81 78 75 70 63 58 51 48 46 43
28 29 31 33 35 37 39 41 43 44 46 47 50 52 56 61 66 69 74 78 81 84 87 90 92 91 91 91 91 88 84 84 82 77 72 69 64 60 55 52 49 52 49 44
27 28 29 32 34 36 37 37 41 45 49 52 57 61 66 71 76 79 80 82 84 85 88 89 88 88 84 81 78 77 73 67 61 53 46 45 42 38 38 42 47 51 51 44
30 31 31 32 33 35 37 42 47 52 57 62 67 72 76 80 82 83 84 84 82 78 74 72 70 65 59 57 55 54 51 46 42 40 37 37 36 36 38 37 37 45 52 49
31 32 32 34 36 42 49 53 56 61 66 71 76 79 82 83 82 79 73 67 62 57 55 51 47 42 43 42 40 39 38 38 37 38 39 40 43 43 39 39 39 41 53 52
31 35 39 43 48 50 54 58 62 68 73 77 79 80 78 73 68 62 59 54 49 42 38 35 37 40 38 38 40 37 36 39 42 42 42 42 41 41 40 35 33 39 54 55
36 40 44 47 50 53 58 63 69 75 79 81 79 72 66 61 58 53 44 40 38 37 39 39 41 42 43 44 45 45 42 39 41 43 43 41 39 38 35 33 36 42 58 64
39 42 45 50 55 59 63 67 73 78 80 78 72 64 55 52 45 42 43 46 49 51 53 54 55 57 58 58 56 53 52 50 46 43 39 38 36 35 33 35 42 44 61 69

GEFSCGP_500_meanwind_006.txt.gz
Wind_Speed
9 9 8 12 15 20 25 27 28 35 40 40 42 43 43 43 41 38 35 32 30 30 29 31 34 36 36 36 34 30 28 29 28 27 27 25 24 24 22 22 21 19 18 19
5 4 7 9 10 12 16 19 21 28 36 38 39 39 39 36 32 31 30 30 30 31 32 35 36 36 36 35 30 27 28 29 27 26 25 23 21 19 19 18 16 14 13 14
1 6 5 5 5 5 8 12 17 21 25 26 29 28 30 30 29 30 30 31 32 34 36 37 37 37 36 32 30 29 29 28 25 24 24 21 18 16 16 17 16 15 14 15
4 5 5 6 8 7 8 13 14 16 17 17 21 21 21 27 27 29 31 32 34 37 38 38 37 35 33 30 30 31 30 28 26 25 23 21 20 19 20 21 21 20 19 18
7 7 8 8 10 9 11 13 13 14 15 15 17 18 16 24 26 28 32 34 36 38 38 35 32 31 30 31 33 33 30 28 26 26 26 26 25 26 26 27 28 27 25 22
5 4 6 7 8 8 11 11 11 12 12 11 14 13 12 19 22 22 24 25 27 30 31 30 29 28 29 32 33 31 29 28 26 27 28 29 29 30 31 32 33 32 29 24
6 7 8 7 8 11 13 12 10 9 9 11 16 13 16 19 18 20 21 23 25 26 27 28 26 27 30 32 31 30 30 30 30 30 31 31 32 32 31 31 31 30 28 25
5 8 10 7 7 9 10 10 9 9 10 11 14 13 19 18 18 18 19 21 23 25 26 28 30 30 30 31 31 32 32 33 34 34 34 34 34 33 31 30 29 29 28 27
7 9 11 8 7 8 8 9 10 11 12 12 11 13 21 19 21 21 22 22 25 27 29 31 33 34 33 33 34 35 36 37 38 38 38 37 36 34 33 32 30 29 28 26
7 7 9 8 7 8 10 11 12 12 13 13 14 17 20 19 22 25 28 29 29 32 34 36 37 39 41 42 43 43 43 44 45 45 44 42 41 38 36 36 35 33 29 27
5 6 7 10 10 13 14 15 15 17 18 19 19 22 23 25 26 28 29 32 35 37 40 42 44 44 45 47 49 49 49 49 50 51 50 49 48 46 42 40 38 35 31 29
6 8 9 12 14 16 18 19 20 21 23 25 27 31 29 30 32 33 34 35 37 40 42 44 47 48 50 51 53 55 56 56 56 56 56 56 55 53 49 46 44 40 36 34
11 13 14 15 20 23 23 23 24 25 27 29 31 36 35 36 37 38 39 40 41 43 45 47 49 51 53 55 56 59 61 62 62 61 61 61 59 57 55 52 49 45 42 40
14 15 17 18 20 24 26 27 27 28 29 31 33 39 39 41 42 42 42 43 44 45 46 48 51 53 56 58 60 62 67 70 70 69 67 66 65 63 62 60 56 49 45 44
16 17 19 21 22 24 26 27 28 30 32 33 36 39 42 44 45 45 45 46 47 48 51 54 56 58 60 65 69 70 72 73 72 73 75 75 75 75 72 67 61 56 55 52
19 19 20 22 24 27 29 30 31 32 33 35 37 40 43 46 49 50 52 56 58 60 62 64 66 68 68 70 74 77 77 76 75 75 75 72 72 72 70 69 69 70 68 63
20 21 22 25 27 30 31 30 32 33 34 36 40 46 50 53 56 58 61 65 68 71 73 75 76 77 77 78 79 81 84 87 89 89 86 83 80 78 79 80 80 81 77 69
21 22 24 25 26 26 28 30 33 35 37 41 47 52 55 59 63 66 70 74 78 80 82 83 82 80 78 75 72 71 71 72 74 76 78 81 84 86 86 86 84 81 76 69
22 23 23 23 25 30 30 33 37 41 44 48 52 56 60 64 68 73 77 81 83 82 79 74 68 62 55 48 43 40 40 42 44 46 49 52 56 61 66 69 70 69 68 65
24 23 24 26 28 31 35 37 41 45 49 54 57 61 66 71 75 77 79 79 74 66 57 50 42 37 34 34 36 38 40 40 39 39 40 39 38 38 42 46 51 55 57 57
24 24 25 27 31 34 37 41 44 48 53 56 61 66 71 75 77 76 69 58 49 41 35 32 32 34 37 41 44 46 46 45 44 44 43 41 37 34 34 36 39 44 49 53
26 27 28 31 34 39 42 45 49 53 57 61 66 71 75 76 71 59 48 40 35 32 33 36 39 43 46 48 49 49 49 49 49 48 46 44 39 34 32 31 30 31 34 40
27 29 32 34 37 41 46 50 54 57 60 65 70 75 76 70 56 43 36 34 35 38 41 45 47 49 50 51 52 51 51 52 53 52 50 47 44 38 33 29 26 25 26 27
30 32 35 37 40 44 48 52 55 59 64 70 75 77 72 57 44 37 36 38 41 44 46 49 50 50 49 50 51 53 54 55 56 55 52 49 46 43 37 32 28 26 26 27
35 37 40 43 46 48 51 55 59 63 69 74 77 73 62 48 40 38 40 43 47 49 51 53 53 51 50 49 50 51 53 55 54 51 48 46 45 43 40 36 31 29 30 30
36 39 42 45 48 50 54 58 62 67 71 76 76 67 51 43 40 42 45 49 52 53 55 54 53 53 51 50 50 50 51 51 49 45 41 40 40 42 41 37 34 32 31 33

GEFSCGP_500_meanwind_012.txt.gz
Wind_Speed
2 1 1 3 8 13 13 12 10 11 18 24 23 20 22 30 33 34 38 42 44 45 46 50 52 47 41 37 35 36 38 38 39 40 39 35 31 29 28 27 26 26 25 24
8 7 3 7 7 1 3 6 10 15 19 21 25 26 24 27 32 34 35 37 40 43 46 46 42 35 32 32 35 38 39 40 41 40 38 35 33 31 28 27 26 25 24 22
10 8 7 7 5 5 6 9 13 15 18 20 20 19 17 20 27 29 29 32 34 37 39 38 29 20 23 29 33 37 40 41 41 39 37 35 34 33 30 27 24 23 22 22
6 7 11 9 8 9 9 13 16 18 19 19 17 16 15 20 25 27 30 32 29 34 40 41 35 30 30 31 35 37 39 39 38 36 35 34 32 30 29 26 24 22 21 22
6 8 10 9 10 10 11 13 13 13 12 11 13 13 17 22 26 27 28 32 36 40 41 41 39 37 36 38 39 35 33 32 31 31 31 29 27 26 26 26 25 23 22 23
2 5 7 7 7 9 10 9 7 11 17 21 21 16 17 20 25 28 31 34 36 38 38 39 38 38 39 38 36 32 31 31 30 30 29 28 26 25 25 27 27 26 26 25
7 3 4 9 10 9 8 8 8 14 22 25 17 9 17 20 22 25 28 30 33 34 35 35 36 36 37 38 37 36 34 34 34 34 33 32 30 29 28 29 30 30 31 30
8 6 6 11 12 10 9 7 9 15 16 18 22 20 23 24 26 25 26 30 34 36 38 39 40 40 41 40 40 40 40 40 40 40 40 40 39 37 36 34 33 33 34 35
10 8 8 12 12 10 11 10 11 15 14 14 18 30 31 28 28 25 27 34 38 40 42 44 45 45 46 47 46 46 46 46 47 47 47 47 47 47 46 45 43 41 39 38
7 7 6 8 10 13 15 15 15 16 17 18 17 30 34 35 33 35 37 39 41 44 46 47 49 50 50 51 52 52 53 53 54 55 55 55 55 55 55 54 53 51 48 45
8 7 6 8 12 10 14 17 19 20 20 21 21 30 34 36 37 40 41 43 46 48 49 51 52 53 54 55 56 57 57 58 60 61 62 62 62 62 62 61 60 59 57 54
11 11 9 10 17 15 11 19 23 24 24 24 25 32 33 37 39 42 45 48 51 52 53 54 56 57 57 58 59 60 61 62 63 64 65 66 67 66 66 66 66 65 63 60
12 12 11 12 17 19 17 19 23 26 27 28 31 36 37 39 42 45 48 51 53 56 59 62 63 63 63 64 65 66 67 67 68 68 69 69 70 70 70 69 68 68 67 65
13 14 14 13 13 16 19 21 23 26 29 31 34 40 44 43 44 48 52 56 59 62 65 66 67 68 69 70 71 72 74 75 76 77 77 77 77 77 76 75 73 72 71 69
16 15 16 15 14 15 19 21 23 27 30 34 38 42 49 50 51 54 57 60 64 67 68 70 72 74 76 78 78 78 77 76 75 75 76 78 80 81 82 82 81 79 76 75
19 18 17 17 14 16 21 23 26 31 36 40 42 44 50 54 56 59 62 65 68 70 72 75 78 79 78 74 70 64 59 55 53 52 53 55 58 62 68 72 77 80 81 81
21 21 19 18 15 16 23 25 30 35 40 44 48 50 52 55 59 62 64 67 71 75 77 78 75 69 61 53 48 44 41 38 37 35 33 32 32 33 36 41 48 56 64 71
22 21 21 19 20 22 26 29 35 39 44 48 49 52 55 58 61 63 67 73 77 78 75 68 57 49 43 41 40 40 40 40 40 40 39 38 37 34 33 32 31 31 34 42
26 25 24 23 23 28 33 36 40 44 48 52 53 56 60 62 65 68 72 76 74 68 59 49 43 40 40 41 42 43 44 45 45 45 45 45 43 41 39 36 33 32 31 30
26 26 25 27 30 32 37 41 44 47 49 55 57 60 62 65 69 71 73 68 61 53 47 43 42 43 44 46 48 49 49 49 49 48 48 48 47 45 43 40 37 35 34 32
23 25 27 29 32 37 40 44 45 47 51 53 56 60 64 69 73 72 65 55 49 45 45 45 47 49 51 52 53 54 53 53 51 50 49 48 47 46 44 42 40 38 37 35
25 27 29 31 34 40 43 46 49 52 55 58 61 64 68 71 70 64 55 49 48 48 49 51 53 55 56 56 56 55 54 53 52 51 49 48 47 46 44 43 41 41 39 37
26 28 31 34 37 42 46 49 52 55 58 60 63 66 71 71 65 56 50 49 50 52 54 56 57 58 57 57 57 56 55 53 52 51 49 47 46 44 43 42 42 41 40 38
31 31 33 35 38 42 47 50 53 56 58 62 65 69 72 67 59 51 50 51 54 56 58 59 58 57 55 54 53 54 53 52 51 49 47 45 43 42 40 40 40 39 39 38
29 32 35 39 42 43 46 50 54 57 60 63 67 70 69 61 54 51 52 54 57 59 60 59 59 57 55 53 52 50 49 47 46 43 41 39 37 36 36 36 35 35 35 34
33 35 38 41 44 47 49 52 56 58 61 64 67 69 64 56 52 52 54 56 59 60 60 60 59 57 53 50 47 44 41 39 37 34 33 32 31 31 32 32 31 31 31 31

GEFSCGP_500_meanwind_018.txt.gz
Wind_Speed
13 11 10 10 10 9 10 12 12 11 10 12 14 18 22 26 29 32 34 36 39 42 45 47 48 50 51 51 47 44 39 30 23 18 18 19 20 19 21 23 23 22 22 21
10 7 7 7 6 8 10 14 17 18 18 17 19 23 27 30 33 35 37 40 42 42 42 43 45 45 44 45 42 36 32 27 23 19 20 21 21 20 21 22 22 22 21 21
8 6 5 5 6 8 11 14 17 21 22 24 25 27 30 33 36 38 39 39 38 37 37 39 40 39 40 39 37 35 33 29 26 24 22 21 21 20 19 20 20 20 19 19
9 6 4 5 6 8 10 13 16 18 22 24 26 29 31 32 35 37 37 37 36 35 35 36 37 37 37 37 36 34 33 30 29 27 24 24 21 19 18 18 18 19 19 19
8 5 3 1 2 5 8 10 12 13 14 16 19 23 25 27 31 32 34 34 34 32 33 35 36 37 38 39 38 36 35 33 32 30 29 27 25 24 23 22 21 21 21 21
5 4 1 3 4 7 10 11 10 9 9 11 14 18 21 22 25 25 26 29 29 29 32 35 37 39 42 42 42 41 40 38 36 35 34 33 32 31 30 29 27 27 26 25
2 4 2 1 4 6 9 10 8 7 10 13 16 19 22 22 22 23 22 23 25 29 33 36 39 42 44 45 46 46 45 44 43 42 41 39 38 38 38 37 36 35 34 32
5 2 2 4 7 7 10 12 13 12 14 17 19 21 23 24 27 27 29 31 32 35 38 41 44 46 47 47 48 48 48 48 47 47 46 45 45 44 44 44 44 44 43 41
7 6 6 9 10 11 14 16 18 17 18 20 22 22 24 26 29 31 34 36 39 42 45 48 50 53 53 53 53 52 51 50 50 50 51 51 51 51 50 50 49 49 49 49
10 9 8 10 12 15 18 19 18 18 20 22 24 26 28 30 32 35 38 40 43 46 49 52 55 57 58 59 60 60 59 57 56 55 55 55 56 56 56 55 55 54 54 54
12 11 11 12 14 15 17 17 16 18 21 24 26 28 31 34 36 39 42 44 46 48 50 53 56 58 61 64 66 67 68 67 66 65 63 62 61 61 61 61 60 59 59 58
12 12 13 14 16 17 17 17 18 20 22 24 28 33 37 40 42 44 46 48 50 53 55 57 59 61 64 67 70 72 73 74 73 71 69 67 66 65 65 65 65 65 64 63
12 12 12 13 14 17 17 17 19 20 22 26 31 36 39 41 44 46 48 51 54 57 59 61 64 66 68 70 71 70 70 69 68 66 63 60 57 56 57 58 61 64 67 68
14 13 12 11 12 14 15 16 18 20 24 28 33 36 38 41 44 47 50 53 56 58 61 64 66 68 67 65 63 62 62 61 59 57 54 50 47 44 42 43 45 50 56 63
14 13 12 13 14 15 15 17 20 23 27 30 33 35 39 43 46 49 52 55 58 61 63 65 65 62 59 58 58 57 57 56 54 52 50 46 43 41 38 36 36 37 40 45
12 12 13 15 17 16 15 18 22 26 28 29 32 36 40 44 47 49 52 56 59 61 61 60 58 55 55 55 55 56 56 56 55 53 50 48 45 43 41 38 37 35 35 35
12 12 14 17 20 19 19 23 26 29 30 33 37 41 44 46 49 52 56 59 60 59 57 54 53 53 55 56 57 58 58 58 57 56 54 52 50 48 45 43 40 38 36 34
15 17 20 21 22 23 24 27 30 33 35 37 40 44 47 51 52 55 58 58 56 54 52 52 52 54 56 58 60 60 60 60 59 58 56 54 53 51 49 47 44 42 40 37
18 20 22 24 26 27 28 31 33 36 38 40 43 46 49 52 52 53 55 55 53 52 52 52 54 56 58 60 61 61 61 60 59 57 55 53 52 52 51 48 46 44 43 41
19 20 22 25 27 29 31 33 35 38 39 42 45 48 51 54 56 55 54 52 51 50 51 52 55 57 59 61 62 61 58 56 54 52 50 48 48 50 50 48 46 45 43 41
17 20 23 26 28 30 33 36 37 38 41 44 48 52 55 57 58 56 53 50 49 49 51 53 56 58 60 61 61 58 55 52 48 45 43 42 43 45 46 46 44 43 42 41
19 22 25 28 30 32 34 36 38 41 44 47 50 53 55 56 56 54 51 48 47 49 51 54 57 58 59 60 59 55 51 48 44 40 37 36 37 39 40 41 40 39 39 39
20 23 26 28 30 32 35 38 42 44 46 48 51 53 54 55 55 53 50 47 47 49 52 55 58 58 59 59 57 52 49 45 41 36 32 29 29 30 32 34 35 35 35 34
20 22 24 27 29 33 36 39 41 43 44 47 50 53 54 55 54 53 49 46 47 49 52 55 57 58 58 57 54 51 48 43 39 33 28 24 22 22 24 26 28 29 30 30
20 22 23 25 29 33 35 37 39 41 44 47 50 52 54 55 54 52 49 46 46 49 51 55 57 58 58 56 53 49 46 43 38 33 27 21 18 15 16 18 20 23 24 26
21 23 25 28 30 32 34 36 39 42 45 48 51 52 53 55 54 51 48 45 45 48 50 54 56 58 58 55 51 47 45 43 39 34 28 20 15 10 9 10 14 17 19 22